OAL883 SLPO-SBCG

Flight info

Callsign OAL883
Flight time 1h 28m
Altitude 37000
Route PTS DCT OGRON DCT UMSIL DCT IRIPI
Aircraft A320/M-SDE3FGHIRWY/LB1

Departure

Time 2026-05-08 17:57
Airport Capitan Nicolas Rojas Airport (SLPO)

Arrival

Time 2026-05-08 19:25
Airport Campo Grande Airport (SBCG)
Time Latitude Longitude Altitude Speed Heading
2026-05-08 17:40 -19.54308 -65.72008 12450 ft 0 kts 159°
2026-05-08 17:43 -19.54302 -65.72011 12440 ft 4 kts 161°
2026-05-08 17:43 -19.54278 -65.72015 12435 ft 4 kts 207°
2026-05-08 17:43 -19.54270 -65.72006 12434 ft 3 kts 301°
2026-05-08 17:44 -19.54273 -65.72000 12435 ft 1 kts 302°
2026-05-08 17:51 -19.54269 -65.72007 12434 ft 5 kts 303°
2026-05-08 17:51 -19.54240 -65.72042 12427 ft 6 kts 319°
2026-05-08 17:51 -19.54202 -65.72071 12427 ft 7 kts 325°
2026-05-08 17:52 -19.54169 -65.72108 12426 ft 7 kts 294°
2026-05-08 17:52 -19.54174 -65.72157 12428 ft 9 kts 246°
2026-05-08 17:52 -19.54308 -65.72370 12440 ft 22 kts 236°
2026-05-08 17:53 -19.54387 -65.72495 12450 ft 19 kts 236°
2026-05-08 17:53 -19.54461 -65.72611 12457 ft 19 kts 236°
2026-05-08 17:53 -19.54536 -65.72730 12465 ft 19 kts 236°
2026-05-08 17:53 -19.54616 -65.72854 12474 ft 22 kts 236°
2026-05-08 17:54 -19.54707 -65.72998 12480 ft 23 kts 236°
2026-05-08 17:54 -19.54786 -65.73122 12488 ft 18 kts 236°
2026-05-08 17:54 -19.54850 -65.73221 12493 ft 16 kts 236°
2026-05-08 17:54 -19.54925 -65.73339 12501 ft 19 kts 235°
2026-05-08 17:55 -19.54986 -65.73443 12509 ft 15 kts 240°
2026-05-08 17:55 -19.55026 -65.73507 12511 ft 5 kts 181°
2026-05-08 17:55 -19.55019 -65.73487 12510 ft 5 kts 53°
2026-05-08 17:55 -19.54992 -65.73447 12509 ft 6 kts 56°
2026-05-08 17:56 -19.54967 -65.73407 12505 ft 16 kts 57°
2026-05-08 17:56 -19.54768 -65.73093 12486 ft 85 kts 56°
2026-05-08 17:56 -19.54322 -65.72395 12439 ft 141 kts 56°
2026-05-08 17:56 -19.53691 -65.71410 12393 ft 184 kts 55°
2026-05-08 17:57 -19.52874 -65.70314 12797 ft 183 kts 46°
2026-05-08 17:57 -19.52104 -65.69227 13424 ft 186 kts 60°
2026-05-08 17:57 -19.51488 -65.67993 14001 ft 191 kts 68°
2026-05-08 17:57 -19.51076 -65.66642 14160 ft 196 kts 79°
2026-05-08 17:58 -19.50882 -65.65151 14048 ft 212 kts 90°
2026-05-08 17:58 -19.50918 -65.63556 14060 ft 221 kts 97°
2026-05-08 17:58 -19.51110 -65.61923 14193 ft 227 kts 101°
2026-05-08 17:58 -19.51345 -65.60243 13904 ft 235 kts 100°
2026-05-08 17:59 -19.51597 -65.58492 14046 ft 247 kts 100°
2026-05-08 17:59 -19.51863 -65.56618 14114 ft 266 kts 99°
2026-05-08 17:59 -19.52138 -65.54625 14239 ft 281 kts 99°
2026-05-08 17:59 -19.52427 -65.52513 14346 ft 299 kts 99°
2026-05-08 18:00 -19.52731 -65.50271 14481 ft 317 kts 99°
2026-05-08 18:00 -19.53380 -65.45394 14716 ft 351 kts 99°
2026-05-08 18:00 -19.53728 -65.42778 14834 ft 366 kts 99°
2026-05-08 18:01 -19.54095 -65.40041 14946 ft 382 kts 99°
2026-05-08 18:01 -19.54478 -65.37206 15079 ft 395 kts 99°
2026-05-08 18:01 -19.54868 -65.34300 15422 ft 401 kts 99°
2026-05-08 18:01 -19.55259 -65.31363 15821 ft 405 kts 99°
2026-05-08 18:02 -19.55651 -65.28402 16300 ft 407 kts 99°
2026-05-08 18:02 -19.55912 -65.26429 16601 ft 409 kts 99°
2026-05-08 18:02 -19.56443 -65.22414 17190 ft 414 kts 99°
2026-05-08 18:02 -19.56841 -65.19379 17628 ft 417 kts 99°
2026-05-08 18:03 -19.57243 -65.16324 18098 ft 420 kts 99°
2026-05-08 18:03 -19.57648 -65.13250 18547 ft 422 kts 99°
2026-05-08 18:03 -19.58057 -65.10154 18940 ft 425 kts 99°
2026-05-08 18:03 -19.58470 -65.07041 19371 ft 428 kts 99°
2026-05-08 18:04 -19.58886 -65.03905 19807 ft 431 kts 99°
2026-05-08 18:04 -19.59302 -65.00754 20240 ft 433 kts 99°
2026-05-08 18:04 -19.59719 -64.97582 20664 ft 436 kts 99°
2026-05-08 18:04 -19.60135 -64.94385 21075 ft 439 kts 99°
2026-05-08 18:05 -19.60550 -64.91167 21426 ft 442 kts 99°
2026-05-08 18:05 -19.60968 -64.87924 21829 ft 444 kts 99°
2026-05-08 18:05 -19.61386 -64.84681 22259 ft 445 kts 99°
2026-05-08 18:05 -19.61812 -64.81423 22641 ft 447 kts 99°
2026-05-08 18:06 -19.62234 -64.78194 23048 ft 449 kts 99°
2026-05-08 18:06 -19.62662 -64.74908 23436 ft 451 kts 99°
2026-05-08 18:06 -19.63097 -64.71567 23772 ft 453 kts 99°
2026-05-08 18:06 -19.63524 -64.68283 24069 ft 456 kts 99°
2026-05-08 18:07 -19.63954 -64.64948 24344 ft 458 kts 99°
2026-05-08 18:07 -19.64386 -64.61585 24648 ft 461 kts 98°
2026-05-08 18:07 -19.64817 -64.58213 24975 ft 463 kts 98°
2026-05-08 18:07 -19.65250 -64.54815 25229 ft 466 kts 98°
2026-05-08 18:08 -19.65692 -64.51361 25514 ft 469 kts 98°
2026-05-08 18:08 -19.66127 -64.47969 25807 ft 471 kts 98°
2026-05-08 18:08 -19.66568 -64.44518 26079 ft 474 kts 98°
2026-05-08 18:08 -19.67018 -64.40999 26344 ft 477 kts 98°
2026-05-08 18:09 -19.67463 -64.37509 26622 ft 479 kts 98°
2026-05-08 18:09 -19.67905 -64.34038 26923 ft 482 kts 98°
2026-05-08 18:09 -19.68353 -64.30497 27167 ft 485 kts 98°
2026-05-08 18:09 -19.68803 -64.26938 27418 ft 489 kts 98°
2026-05-08 18:10 -19.69258 -64.23354 27710 ft 491 kts 98°
2026-05-08 18:10 -19.69716 -64.19756 28038 ft 492 kts 97°
2026-05-08 18:10 -19.70172 -64.16155 28434 ft 492 kts 97°
2026-05-08 18:10 -19.70631 -64.12502 28795 ft 493 kts 97°
2026-05-08 18:11 -19.71086 -64.08891 29157 ft 494 kts 97°
2026-05-08 18:11 -19.71540 -64.05280 29531 ft 494 kts 97°
2026-05-08 18:11 -19.71993 -64.01661 29842 ft 496 kts 97°
2026-05-08 18:11 -19.72400 -63.98024 30170 ft 496 kts 92°
2026-05-08 18:12 -19.72549 -63.94367 30498 ft 496 kts 91°
2026-05-08 18:12 -19.72683 -63.90711 30850 ft 496 kts 91°
2026-05-08 18:12 -19.72818 -63.87051 31214 ft 496 kts 91°
2026-05-08 18:12 -19.72954 -63.83402 31577 ft 495 kts 91°
2026-05-08 18:13 -19.73090 -63.79747 31939 ft 495 kts 91°
2026-05-08 18:13 -19.73226 -63.76099 32297 ft 495 kts 91°
2026-05-08 18:13 -19.73315 -63.73686 32557 ft 495 kts 91°
2026-05-08 18:13 -19.73451 -63.70034 32925 ft 495 kts 91°
2026-05-08 18:14 -19.73587 -63.66380 33286 ft 495 kts 91°
2026-05-08 18:14 -19.73719 -63.62733 33665 ft 495 kts 91°
2026-05-08 18:14 -19.73846 -63.59088 34029 ft 494 kts 91°
2026-05-08 18:14 -19.73975 -63.55447 34337 ft 494 kts 91°
2026-05-08 18:15 -19.74102 -63.51802 34639 ft 494 kts 91°
2026-05-08 18:15 -19.74226 -63.48161 34928 ft 493 kts 91°
2026-05-08 18:15 -19.74353 -63.44528 35200 ft 493 kts 90°
2026-05-08 18:15 -19.74480 -63.40886 35449 ft 493 kts 90°
2026-05-08 18:16 -19.74605 -63.37242 35671 ft 494 kts 90°
2026-05-08 18:16 -19.74730 -63.33599 35917 ft 494 kts 90°
2026-05-08 18:16 -19.74855 -63.29957 36157 ft 494 kts 90°
2026-05-08 18:16 -19.74979 -63.26313 36376 ft 494 kts 90°
2026-05-08 18:17 -19.75099 -63.22663 36615 ft 494 kts 90°
2026-05-08 18:17 -19.75217 -63.19017 36842 ft 494 kts 90°
2026-05-08 18:17 -19.75334 -63.15368 36948 ft 496 kts 90°
2026-05-08 18:17 -19.75451 -63.11692 36963 ft 501 kts 90°
2026-05-08 18:18 -19.75700 -63.04231 36957 ft 508 kts 90°
2026-05-08 18:18 -19.75950 -62.96728 36957 ft 509 kts 90°
2026-05-08 18:19 -19.76193 -62.89213 36957 ft 509 kts 90°
2026-05-08 18:19 -19.76424 -62.81692 36960 ft 510 kts 89°
2026-05-08 18:20 -19.76655 -62.74155 36961 ft 511 kts 89°
2026-05-08 18:20 -19.76884 -62.66605 36959 ft 512 kts 89°
2026-05-08 18:21 -19.77113 -62.59052 36968 ft 512 kts 89°
2026-05-08 18:21 -19.77342 -62.51487 36964 ft 513 kts 89°
2026-05-08 18:22 -19.77562 -62.43915 36958 ft 513 kts 89°
2026-05-08 18:22 -19.77778 -62.36339 36963 ft 514 kts 89°
2026-05-08 18:23 -19.77994 -62.28748 36972 ft 514 kts 89°
2026-05-08 18:23 -19.78208 -62.21160 36975 ft 514 kts 89°
2026-05-08 18:24 -19.78417 -62.13564 36973 ft 514 kts 89°
2026-05-08 18:24 -19.78622 -62.05974 36973 ft 515 kts 89°
2026-05-08 18:25 -19.78827 -61.98383 36979 ft 515 kts 89°
2026-05-08 18:25 -19.79040 -61.90781 36980 ft 515 kts 89°
2026-05-08 18:26 -19.79238 -61.83163 36982 ft 515 kts 89°
2026-05-08 18:26 -19.79424 -61.75557 36983 ft 515 kts 89°
2026-05-08 18:27 -19.79583 -61.69247 36976 ft 515 kts 89°
2026-05-08 18:27 -19.79805 -61.60355 36986 ft 515 kts 89°
2026-05-08 18:28 -19.79988 -61.52750 36987 ft 515 kts 89°
2026-05-08 18:28 -19.80166 -61.45149 36991 ft 515 kts 89°
2026-05-08 18:29 -19.80346 -61.37540 36994 ft 515 kts 89°
2026-05-08 18:29 -19.80524 -61.29929 36996 ft 515 kts 89°
2026-05-08 18:30 -19.80693 -61.22317 36991 ft 516 kts 89°
2026-05-08 18:30 -19.80859 -61.14704 36996 ft 516 kts 89°
2026-05-08 18:31 -19.81019 -61.07087 37000 ft 516 kts 89°
2026-05-08 18:31 -19.81180 -60.99482 36993 ft 516 kts 89°
2026-05-08 18:32 -19.81342 -60.91870 36998 ft 515 kts 89°
2026-05-08 18:32 -19.81502 -60.84260 37000 ft 515 kts 89°
2026-05-08 18:33 -19.81658 -60.76651 37004 ft 515 kts 89°
2026-05-08 18:33 -19.81796 -60.69050 37001 ft 515 kts 88°
2026-05-08 18:34 -19.81944 -60.61448 37012 ft 515 kts 89°
2026-05-08 18:34 -19.82093 -60.53831 37003 ft 516 kts 89°
2026-05-08 18:35 -19.82230 -60.46213 37005 ft 516 kts 89°
2026-05-08 18:35 -19.82360 -60.38587 37004 ft 516 kts 89°
2026-05-08 18:36 -19.82498 -60.30962 37014 ft 516 kts 89°
2026-05-08 18:36 -19.82631 -60.23336 37013 ft 516 kts 88°
2026-05-08 18:37 -19.82753 -60.15708 37009 ft 517 kts 88°
2026-05-08 18:37 -19.82876 -60.08083 37012 ft 516 kts 88°
2026-05-08 18:38 -19.83003 -60.00460 37016 ft 516 kts 88°
2026-05-08 18:38 -19.83121 -59.92841 37019 ft 516 kts 88°
2026-05-08 18:39 -19.83234 -59.85219 37026 ft 516 kts 88°
2026-05-08 18:39 -19.83339 -59.77597 37032 ft 515 kts 87°
2026-05-08 18:40 -19.83444 -59.69993 37027 ft 515 kts 87°
2026-05-08 18:40 -19.83552 -59.62395 37022 ft 514 kts 87°
2026-05-08 18:41 -19.83652 -59.54801 37029 ft 514 kts 87°
2026-05-08 18:41 -19.83751 -59.47208 37027 ft 514 kts 87°
2026-05-08 18:42 -19.83847 -59.39618 37026 ft 514 kts 87°
2026-05-08 18:42 -19.83932 -59.32038 37025 ft 513 kts 87°
2026-05-08 18:43 -19.84022 -59.24461 37021 ft 512 kts 87°
2026-05-08 18:43 -19.84104 -59.16898 37036 ft 512 kts 87°
2026-05-08 18:44 -19.84189 -59.09328 37019 ft 513 kts 87°
2026-05-08 18:44 -19.84266 -59.01749 37010 ft 513 kts 87°
2026-05-08 18:45 -19.84340 -58.94179 37020 ft 513 kts 87°
2026-05-08 18:45 -19.84416 -58.86608 37020 ft 512 kts 87°
2026-05-08 18:46 -19.84481 -58.79046 37011 ft 512 kts 87°
2026-05-08 18:46 -19.84549 -58.71496 37008 ft 511 kts 87°
2026-05-08 18:47 -19.84613 -58.63938 37003 ft 511 kts 87°
2026-05-08 18:47 -19.84664 -58.56393 36999 ft 511 kts 87°
2026-05-08 18:48 -19.84723 -58.48841 37000 ft 511 kts 87°
2026-05-08 18:48 -19.84778 -58.41300 37001 ft 511 kts 87°
2026-05-08 18:49 -19.84823 -58.33755 36982 ft 511 kts 87°
2026-05-08 18:49 -19.84864 -58.26210 36984 ft 511 kts 87°
2026-05-08 18:50 -19.84907 -58.18613 36967 ft 511 kts 87°
2026-05-08 18:50 -19.84940 -58.12345 36974 ft 510 kts 87°
2026-05-08 18:51 -19.84983 -58.03588 36978 ft 510 kts 87°
2026-05-08 18:51 -19.85010 -57.97289 36970 ft 509 kts 87°
2026-05-08 18:52 -19.85041 -57.89769 36961 ft 509 kts 88°
2026-05-08 18:52 -19.85070 -57.82258 36964 ft 508 kts 87°
2026-05-08 18:53 -19.85084 -57.74752 36963 ft 508 kts 87°
2026-05-08 18:53 -19.85103 -57.67245 36951 ft 508 kts 87°
2026-05-08 18:54 -19.85125 -57.59741 36945 ft 508 kts 88°
2026-05-08 18:54 -19.85149 -57.52240 36949 ft 508 kts 87°
2026-05-08 18:55 -19.85272 -57.40986 36942 ft 509 kts 94°
2026-05-08 18:56 -19.85995 -57.33500 36928 ft 509 kts 94°
2026-05-08 18:56 -19.86721 -57.26013 36927 ft 509 kts 94°
2026-05-08 18:57 -19.87439 -57.18523 36930 ft 509 kts 94°
2026-05-08 18:57 -19.88142 -57.11049 36926 ft 509 kts 94°
2026-05-08 18:58 -19.88846 -57.03574 36918 ft 509 kts 94°
2026-05-08 18:58 -19.89552 -56.96088 36918 ft 509 kts 94°
2026-05-08 18:59 -19.90258 -56.88606 36903 ft 509 kts 94°
2026-05-08 18:59 -19.90961 -56.81123 36899 ft 509 kts 95°
2026-05-08 19:00 -19.91653 -56.73648 36902 ft 508 kts 94°
2026-05-08 19:00 -19.92339 -56.66176 36897 ft 509 kts 94°
2026-05-08 19:01 -19.93025 -56.58670 36889 ft 510 kts 94°
2026-05-08 19:01 -19.93707 -56.51166 36875 ft 510 kts 94°
2026-05-08 19:02 -19.94394 -56.43660 36874 ft 510 kts 94°
2026-05-08 19:02 -19.94740 -56.39905 36661 ft 511 kts 94°
2026-05-08 19:02 -19.95085 -56.36140 36412 ft 512 kts 94°
2026-05-08 19:02 -19.95428 -56.32373 36159 ft 512 kts 94°
2026-05-08 19:03 -19.95768 -56.28595 35674 ft 514 kts 95°
2026-05-08 19:03 -19.96110 -56.24781 34748 ft 522 kts 95°
2026-05-08 19:03 -19.96454 -56.20920 33855 ft 529 kts 95°
2026-05-08 19:03 -19.96804 -56.16996 32721 ft 537 kts 95°
2026-05-08 19:04 -19.97156 -56.13031 31673 ft 541 kts 95°
2026-05-08 19:04 -19.97510 -56.09035 30727 ft 541 kts 95°
2026-05-08 19:04 -19.97864 -56.05035 29547 ft 545 kts 95°
2026-05-08 19:04 -19.98216 -56.01041 28650 ft 540 kts 95°
2026-05-08 19:05 -19.98566 -55.97077 27788 ft 535 kts 95°
2026-05-08 19:05 -19.98908 -55.93166 27059 ft 529 kts 95°
2026-05-08 19:05 -19.99247 -55.89294 26305 ft 524 kts 95°
2026-05-08 19:05 -19.99563 -55.85448 25571 ft 520 kts 95°
2026-05-08 19:06 -20.00129 -55.81669 24871 ft 515 kts 100°
2026-05-08 19:06 -20.00803 -55.77950 24170 ft 510 kts 101°
2026-05-08 19:06 -20.01483 -55.74263 23487 ft 506 kts 101°
2026-05-08 19:06 -20.02167 -55.70609 22684 ft 501 kts 101°
2026-05-08 19:07 -20.02614 -55.66962 21906 ft 495 kts 90°
2026-05-08 19:07 -20.02736 -55.63314 21146 ft 491 kts 95°
2026-05-08 19:07 -20.03573 -55.59820 20390 ft 488 kts 115°
2026-05-08 19:07 -20.05440 -55.56809 19659 ft 480 kts 134°
2026-05-08 19:08 -20.07847 -55.54382 18956 ft 474 kts 139°
2026-05-08 19:08 -20.10205 -55.51956 18261 ft 469 kts 136°
2026-05-08 19:08 -20.12397 -55.49471 17474 ft 452 kts 133°
2026-05-08 19:08 -20.14433 -55.46989 16697 ft 438 kts 131°
2026-05-08 19:09 -20.16394 -55.44517 15947 ft 438 kts 131°
2026-05-08 19:09 -20.18358 -55.42043 15210 ft 440 kts 131°
2026-05-08 19:09 -20.20336 -55.39591 14485 ft 430 kts 131°
2026-05-08 19:09 -20.22270 -55.37236 13779 ft 416 kts 132°
2026-05-08 19:10 -20.24120 -55.34909 13011 ft 412 kts 127°
2026-05-08 19:10 -20.25677 -55.32383 12241 ft 414 kts 118°
2026-05-08 19:10 -20.26980 -55.29645 11490 ft 415 kts 115°
2026-05-08 19:10 -20.28240 -55.26912 10753 ft 404 kts 115°
2026-05-08 19:11 -20.29454 -55.24267 10022 ft 391 kts 114°
2026-05-08 19:11 -20.30642 -55.21666 9256 ft 380 kts 114°
2026-05-08 19:11 -20.31787 -55.19160 8487 ft 371 kts 114°
2026-05-08 19:11 -20.32909 -55.16711 7728 ft 365 kts 113°
2026-05-08 19:12 -20.34012 -55.14307 6999 ft 359 kts 112°
2026-05-08 19:12 -20.35102 -55.11934 6269 ft 354 kts 112°
2026-05-08 19:12 -20.36174 -55.09593 5502 ft 350 kts 112°
2026-05-08 19:12 -20.37235 -55.07274 4755 ft 347 kts 112°
2026-05-08 19:13 -20.38291 -55.04973 3976 ft 344 kts 114°
2026-05-08 19:13 -20.39509 -55.02818 3555 ft 332 kts 123°
2026-05-08 19:13 -20.40909 -55.00964 3430 ft 312 kts 131°
2026-05-08 19:13 -20.42423 -54.99371 3435 ft 302 kts 136°
2026-05-08 19:14 -20.43950 -54.97834 3441 ft 301 kts 139°
2026-05-08 19:14 -20.45728 -54.96716 3452 ft 297 kts 159°
2026-05-08 19:14 -20.47507 -54.95700 3449 ft 286 kts 140°
2026-05-08 19:14 -20.48663 -54.94090 3455 ft 265 kts 105°
2026-05-08 19:15 -20.49091 -54.92205 3466 ft 269 kts 95°
2026-05-08 19:15 -20.49359 -54.90200 3475 ft 276 kts 92°
2026-05-08 19:15 -20.49482 -54.88161 3472 ft 273 kts 83°
2026-05-08 19:15 -20.49294 -54.86172 3479 ft 266 kts 71°
2026-05-08 19:16 -20.48715 -54.84323 3489 ft 260 kts 57°
2026-05-08 19:16 -20.47769 -54.82706 3486 ft 254 kts 44°
2026-05-08 19:16 -20.46541 -54.81375 3496 ft 251 kts 36°
2026-05-08 19:16 -20.45257 -54.80143 3491 ft 243 kts 36°
2026-05-08 19:17 -20.44016 -54.78942 3498 ft 240 kts 36°
2026-05-08 19:17 -20.42783 -54.77753 3501 ft 239 kts 36°
2026-05-08 19:17 -20.41544 -54.76558 3509 ft 241 kts 35°
2026-05-08 19:17 -20.40299 -54.75357 3511 ft 241 kts 35°
2026-05-08 19:18 -20.39049 -54.74151 3505 ft 243 kts 36°
2026-05-08 19:18 -20.37802 -54.72948 3432 ft 242 kts 36°
2026-05-08 19:18 -20.36559 -54.71747 3426 ft 241 kts 36°
2026-05-08 19:18 -20.35309 -54.70543 3429 ft 243 kts 36°
2026-05-08 19:19 -20.34052 -54.69334 3425 ft 244 kts 36°
2026-05-08 19:19 -20.32807 -54.68134 3427 ft 243 kts 35°
2026-05-08 19:19 -20.31562 -54.66935 3429 ft 238 kts 35°
2026-05-08 19:19 -20.30361 -54.65775 3424 ft 227 kts 35°
2026-05-08 19:20 -20.29266 -54.64655 3419 ft 213 kts 44°
2026-05-08 19:20 -20.28977 -54.64224 3415 ft 211 kts 52°
2026-05-08 19:20 -20.28498 -54.61719 3634 ft 219 kts 93°
2026-05-08 19:20 -20.29028 -54.60199 3581 ft 220 kts 122°
2026-05-08 19:21 -20.30017 -54.58973 3479 ft 217 kts 131°
2026-05-08 19:21 -20.31028 -54.57795 3438 ft 215 kts 132°
2026-05-08 19:21 -20.32188 -54.56820 3423 ft 212 kts 156°
2026-05-08 19:21 -20.33556 -54.56376 3420 ft 200 kts 180°
2026-05-08 19:22 -20.34902 -54.56458 3432 ft 190 kts 202°
2026-05-08 19:22 -20.36079 -54.56971 3437 ft 179 kts 223°
2026-05-08 19:22 -20.37022 -54.57791 3436 ft 174 kts 234°
2026-05-08 19:22 -20.37926 -54.58671 3432 ft 177 kts 232°
2026-05-08 19:23 -20.38837 -54.59548 3434 ft 177 kts 232°
2026-05-08 19:23 -20.39749 -54.60424 3502 ft 176 kts 231°
2026-05-08 19:23 -20.40641 -54.61276 3353 ft 170 kts 231°
2026-05-08 19:23 -20.41507 -54.62103 3103 ft 164 kts 232°
2026-05-08 19:24 -20.42335 -54.62893 2873 ft 157 kts 232°
2026-05-08 19:24 -20.43138 -54.63661 2676 ft 152 kts 231°
2026-05-08 19:24 -20.43912 -54.64402 2457 ft 148 kts 229°
2026-05-08 19:24 -20.44679 -54.65121 2181 ft 144 kts 229°
2026-05-08 19:25 -20.45381 -54.65842 2090 ft 139 kts 227°
2026-05-08 19:25 -20.46100 -54.66528 1901 ft 138 kts 228°
2026-05-08 19:25 -20.46746 -54.67164 1839 ft 98 kts 222°
2026-05-08 19:25 -20.47054 -54.67454 1838 ft 38 kts 221°
2026-05-08 19:26 -20.47147 -54.67545 1837 ft 6 kts 181°
2026-05-08 19:26 -20.47148 -54.67533 1838 ft 1 kts 56°
2026-05-08 19:26 -20.47098 -54.67490 1838 ft 15 kts 38°
2026-05-08 19:26 -20.47009 -54.67424 1838 ft 15 kts 19°
2026-05-08 19:27 -20.46936 -54.67462 1838 ft 11 kts 316°
2026-05-08 19:27 -20.46914 -54.67487 1839 ft 1 kts 314°
2026-05-08 19:27 -20.46901 -54.67500 1839 ft 5 kts 319°
2026-05-08 19:27 -20.46861 -54.67509 1839 ft 7 kts 10°
2026-05-08 19:28 -20.46817 -54.67479 1839 ft 8 kts 39°
2026-05-08 19:28 -20.46770 -54.67434 1839 ft 10 kts 41°
2026-05-08 19:28 -20.46714 -54.67382 1839 ft 11 kts 41°
2026-05-08 19:28 -20.46675 -54.67344 1839 ft 12 kts 42°
2026-05-08 19:29 -20.46608 -54.67278 1839 ft 14 kts 43°
2026-05-08 19:29 -20.46532 -54.67204 1839 ft 15 kts 43°
2026-05-08 19:29 -20.46461 -54.67133 1839 ft 8 kts 42°
2026-05-08 19:29 -20.46407 -54.67096 1839 ft 10 kts 32°
2026-05-08 19:30 -20.46337 -54.67092 1839 ft 11 kts 352°
2026-05-08 19:30 -20.46252 -54.67103 1839 ft 13 kts 353°
2026-05-08 19:30 -20.46183 -54.67111 1839 ft 0 kts 354°
2026-05-08 19:30 -20.46174 -54.67112 1839 ft 2 kts 354°
2026-05-08 19:31 -20.46152 -54.67115 1839 ft 4 kts 354°
2026-05-08 19:31 -20.46118 -54.67119 1839 ft 4 kts 354°
2026-05-08 19:31 -20.46108 -54.67120 1839 ft 1 kts 354°
2026-05-08 19:31 -20.46091 -54.67122 1839 ft 3 kts 354°
2026-05-08 19:32 -20.46060 -54.67125 1839 ft 5 kts 354°
2026-05-08 19:32 -20.46016 -54.67131 1839 ft 7 kts 354°
2026-05-08 19:32 -20.45957 -54.67137 1839 ft 9 kts 354°
2026-05-08 19:32 -20.45888 -54.67132 1839 ft 11 kts 26°
2026-05-08 19:33 -20.45859 -54.67057 1839 ft 10 kts 82°
2026-05-08 19:33 -20.45853 -54.66988 1839 ft 4 kts 83°
2026-05-08 19:33 -20.45830 -54.66969 1839 ft 5 kts 14°
2026-05-08 19:33 -20.45808 -54.66970 1839 ft 2 kts 355°
2026-05-08 19:34 -20.45799 -54.66971 1839 ft 0 kts 354°
2026-05-08 19:34 -20.45798 -54.66971 1839 ft 0 kts 354°